Weather in Alkhazurovo

Russia / Chechen Republic     43°03′50″N   45°39′09″E
temp.,
°C
wind,
m/s
gust,
m/s
humid.,
%
clouds,
%
prec.,
mm/h
press.,
hPa
HPBL,
m
22 october, fri
fri2200:00+8s33620 0.0 102434
03:00+8s23540 0.0 102232
06:00+8s33490 0.0 102231
09:00+15nne11390 0.0 1020150
12:00+18n21360 0.0 1019414
15:00+17n11420 0.0 1019402
18:00+11s22640 0.0 102115
21:00+11s22650 0.0 102118
23 october, sat
sat2300:00+11s22590 0.0 102019
03:00+10s22550 0.0 102118
06:00+9s22560 0.0 102119
09:00+15nnw10430 0.0 1020241
12:00+17n21400 0.0 1019675
15:00+17n21410 0.0 1018643
18:00+11s22610 0.0 102016
21:00+11s22680 0.0 101923
24 october, sun
sun2400:00+10s22700 0.0 101921
03:00+10s22710 0.0 101923
06:00+9s22720 0.0 102025
09:00+15n115266 0.0 1019334
12:00+16n224799 0.0 1018891
15:00+15n2247100 0.0 1017799
18:00+11sse116493 0.0 101811
21:00+9ssw217081 0.0 101713
25 october, mon
mon2500:00+9ssw227210 0.0 101714
03:00+8wsw1273100 0.0 101871
06:00+7nnw3595100 0.6 1020808
09:00+4nw2495100 2.8 1024652
12:00+3nnw2497100 1.8 1024623
15:00+3w2494100 3.6 1026389
18:00+3nw3896100 2.3 1030700
21:00+2ssw238371 2.8 103271
26 october, tue
tue2600:000s228354 0.0 103238
03:00−1s228239 0.0 103324
06:000s238174 0.0 1034150
09:00+3nnw127086 0.0 1034674
12:00+5nnw226413 0.0 1032889
15:00+6nnw226125 0.0 1031977
18:00+2sse117522 0.0 103311
21:00+1sse11825 0.0 103312